UKP25 EGCB-EGCB

Flight info

Callsign UKP25
Flight time 0h 9m
Altitude 22000
Route 5329N00225W 5343N00245W DCT 5400N00305W 5415N00315W 5428N00320W 5435N00305W 5428N00250W 5415N00240W DCT 5355N00235W
Aircraft A310/H-SDFGHIM1RTUWXY/LB1

Departure

Time 2026-05-04 17:26
Airport Manchester Barton Aerodrome (EGCB)

Arrival

Time 2026-05-04 17:36
Airport Manchester Barton Aerodrome (EGCB)
Time Latitude Longitude Altitude Speed Heading
2026-05-04 17:26 53.47209 -2.36708 1287 ft 100 kts 49°
2026-05-04 17:26 53.49438 -2.35283 1114 ft 144 kts 22°
2026-05-04 17:27 53.51085 -2.34494 942 ft 131 kts 14°
2026-05-04 17:27 53.52813 -2.33852 1010 ft 117 kts
2026-05-04 17:28 53.54515 -2.33270 884 ft 137 kts 13°
2026-05-04 17:29 53.57050 -2.31770 943 ft 131 kts 22°
2026-05-04 17:29 53.59224 -2.28872 1237 ft 109 kts 35°
2026-05-04 17:30 53.60121 -2.26992 2843 ft 25 kts 64°
2026-05-04 17:31 53.60089 -2.26857 3368 ft 11 kts 15°
2026-05-04 17:31 53.60055 -2.26780 3632 ft 7 kts 152°
2026-05-04 17:32 53.60021 -2.26752 3437 ft 2 kts 127°
2026-05-04 17:33 53.60000 -2.26603 3163 ft 8 kts 120°
2026-05-04 17:33 53.59988 -2.26478 3070 ft 9 kts 121°
2026-05-04 17:34 53.59976 -2.26179 2797 ft 6 kts 167°
2026-05-04 17:34 53.59956 -2.26104 2718 ft 8 kts 180°
2026-05-04 17:35 53.59898 -2.25822 2320 ft 43 kts 162°
2026-05-04 17:35 53.59699 -2.25760 1736 ft 5 kts 310°
2026-05-04 17:35 53.59675 -2.25644 2036 ft 4 kts 301°
2026-05-04 17:36 53.59672 -2.25659 2033 ft 12 kts 267°
2026-05-04 17:36 53.59653 -2.25586 2364 ft 29 kts 248°
2026-05-04 17:36 53.59544 -2.25640 1118 ft 25 kts 313°